Hourly Data Report for November 29, 2020

CARBERRY CS
MANITOBA
Current Station Operator: ECCC - MSC

49°54'20.900" N
99°21'26.800" W
383.50 m
5010547
71170
WZE

Download Data

Hourly Data (November 2020)
Hourly Data Report for November 29, 2020
TIME
LST
Temp Definition
°C
Dew Point Definition
°C
Rel Hum Definition
%
Precip. Amount Definition
mm

Wind Dir Definition
10's deg

Wind Spd Definition
km/h
Visibility Definition
km
Stn Press Definition
kPa
Hmdx Definition


Wind Chill Definition


Weather Definition


00:00 -2.4 -6.8 72 0.0 30 33   97.08   -10 LegendNANA
01:00 -2.7 -8.3 65 0.0 30 32   97.20   -10 LegendNANA
02:00 -2.8 -8.8 63 0.0 30 30   97.32   -10 LegendNANA
03:00 -4.2 -10.2 63 0.0 30 28   97.43   -12 LegendNANA
04:00 -5.8 -10.5 70 0.0 29 25   97.54   -13 LegendNANA
05:00 -7.1 -10.9 74 0.0 29 21   97.65   -14 LegendNANA
06:00 -8.5 -11.4 80 0.0 29 25   97.75   -17 LegendNANA
07:00 -9.8 -12.5 80 0.0 28 23   97.83   -18 LegendNANA
08:00 -10.5 -13.8 77 0.0 28 23   97.97   -19 LegendNANA
09:00 -10.3 -13.9 75 0.0 28 22   98.05   -19 LegendNANA
10:00 -9.0 -13.4 70 0.0 28 19   98.09   -16 LegendNANA
11:00 -6.7 -12.2 65 0.0 30 20   98.12   -14 LegendNANA
12:00 -5.0 -11.5 60 0.0 29 20   98.12   -12 LegendNANA
13:00 -3.8 -11.1 57 0.0 28 23   98.10   -11 LegendNANA
14:00 -3.1 -10.4 57 0.0 27 22   98.07   -9 LegendNANA
15:00 -2.5 -10.1 56 0.0 27 23   98.07   -9 LegendNANA
16:00 -2.9 -10.2 57 0.0 27 15   98.05   -8 LegendNANA
17:00 -4.4 -10.1 64 0.0 25 9   98.04   -8 LegendNANA
18:00 -7.3 -12.4 67 0.0 21 7   98.02   -11 LegendNANA
19:00 -7.7 -11.2 76 0.0 20 11   97.93   -13 LegendNANA
20:00 -8.1 -10.7 82 0.0 20 8   97.92   -12 LegendNANA
21:00 -9.8 -11.8 85 0.0 22 5   97.89   -13 LegendNANA
22:00 -12.2 -14.2 85 0.0 17 4   97.76   -15 LegendNANA
23:00 -11.9 -13.1 91 0.0 19 10   97.74   -18 LegendNANA

Notes on Data Quality.

Legend

  • E = Estimated
  • M = Missing
  • NA = Not Available*
  • [empty] = Indicates an unobserved value
Date modified: